Crestview, FL

7:37 PM CDT on October 17, 2017 (GMT -0500)
Sikes

Weather History for KCEW - January, 2012

Change the Weather History Date:

Friday, January 13, 2012

  Actual Average Record
Temperature  
Mean Temperature 39 °F -  
Max Temperature 50 °F 57 °F 79 °F (2017)
Min Temperature 26 °F 37 °F 8 °F (1981)
Degree Days  
Heating Degree Days 26    
Moisture  
Dew Point 19 °F    
Average Humidity 51    
Maximum Humidity 88    
Minimum Humidity 26    
Precipitation  
Precipitation 0.00 in - - ()
Sea Level Pressure  
Sea Level Pressure 30.24 in    
Wind  
Wind Speed 6 mph (NW)    
Max Wind Speed 10 mph    
Max Gust Speed 16 mph    
Visibility 10 miles    
Events      
Averages and records for this station are not official NWS values.
T = Trace of Precipitation, MM = Missing Value Source: NWS Daily Summary

Daily Weather History Graph

Daily Weather History Graph

Search for Another Location

Airport or City:

Trip Planner

Search our weather history database for the weather conditions in past years. The results will help you decide how hot, cold, wet, or windy it might be!

Date:

Astronomy

Jan. 13, 2012 Rise Set
Actual Time 6:44 AM CST 5:04 PM CST
Civil Twilight 6:18 AM CST 5:31 PM CST
Nautical Twilight 5:48 AM CST 6:00 PM CST
Astronomical Twilight 5:19 AM CST 6:29 PM CST
Moon 9:52 PM CST (1/13) 9:20 AM CST (1/13)
Length of Visible Light 11h 12m
Length of Day
10h 20m
Waning Gibbous, 78% of the Moon is Illuminated
Jan 13
Waning Gibbous
Jan 16
Last Quarter
Jan 23
New
Jan 30
First Quarter
Feb 7
Full

Hourly Weather History & Observations

Time (CST) Temp. Windchill Dew Point Humidity Pressure Visibility Wind Dir Wind Speed Gust Speed Precip Events Conditions
12:53 AM 37.9 °F 32.1 °F 21.0 °F 51% 30.15 in 10.0 mi NW 8.1 mph - N/A   Clear
1:53 AM 37.0 °F 31.6 °F 19.0 °F 48% 30.17 in 10.0 mi NW 6.9 mph - N/A   Clear
2:53 AM 35.1 °F 29.3 °F 17.1 °F 48% 30.17 in 10.0 mi NW 6.9 mph - N/A   Clear
3:53 AM 32.0 °F 27.5 °F 17.1 °F 54% 30.17 in 10.0 mi NW 4.6 mph - N/A   Clear
4:53 AM 32.0 °F 26.4 °F 18.0 °F 56% 30.19 in 10.0 mi WNW 5.8 mph - N/A   Clear
5:53 AM 30.9 °F 27.5 °F 17.1 °F 57% 30.22 in 10.0 mi WNW 3.5 mph - N/A   Clear
6:53 AM 30.0 °F 26.5 °F 18.0 °F 61% 30.25 in 10.0 mi NW 3.5 mph - N/A   Clear
7:53 AM 34.0 °F 29.8 °F 19.0 °F 54% 30.26 in 10.0 mi Variable 4.6 mph - N/A   Clear
8:53 AM 37.0 °F 29.8 °F 16.0 °F 42% 30.29 in 10.0 mi NNW 10.4 mph - N/A   Clear
9:53 AM 39.9 °F 34.5 °F 15.1 °F 36% 30.28 in 10.0 mi NNW 8.1 mph 16.1 mph N/A   Clear
10:53 AM 43.0 °F 37.2 °F 16.0 °F 34% 30.26 in 10.0 mi NNW 10.4 mph 16.1 mph N/A   Clear
11:53 AM 46.0 °F 41.4 °F 17.1 °F 31% 30.22 in 10.0 mi NW 9.2 mph - N/A   Clear
12:53 PM 48.0 °F - 16.0 °F 28% 30.21 in 10.0 mi NW 10.4 mph - N/A   Clear
1:53 PM 48.9 °F - 16.0 °F 27% 30.20 in 10.0 mi West 6.9 mph - N/A   Clear
2:53 PM 50.0 °F - 16.0 °F 26% 30.19 in 10.0 mi WNW 8.1 mph - N/A   Clear
3:53 PM 50.0 °F - 16.0 °F 26% 30.20 in 10.0 mi NNW 4.6 mph - N/A   Clear
4:53 PM 46.0 °F 42.5 °F 18.0 °F 33% 30.22 in 10.0 mi NNW 6.9 mph - N/A   Clear
5:53 PM 43.0 °F 41.3 °F 19.0 °F 38% 30.25 in 10.0 mi WNW 3.5 mph - N/A   Clear
6:53 PM 36.0 °F - 26.1 °F 67% 30.27 in 10.0 mi Calm Calm - N/A   Clear
7:53 PM 34.0 °F - 26.1 °F 73% 30.30 in 10.0 mi Calm Calm - N/A   Clear
8:53 PM 30.2 °F 26.7 °F 26.6 °F 86% 30.31 in 10.0 mi WNW 3.5 mph - N/A   Clear
9:53 PM 28.9 °F - 24.1 °F 82% 30.33 in 10.0 mi Calm Calm - N/A   Clear
10:53 PM 28.0 °F - 23.0 °F 81% 30.33 in 10.0 mi Calm Calm - N/A   Clear
11:53 PM 26.1 °F - 23.0 °F 88% 30.32 in 10.0 mi Calm Calm - N/A   Clear